Simultaneous Nadir Overpasses (SNOs) Predictions

Prediction of SNOs between GOES-14 and NOAA-20 Satellite Orbit:

Table of predicted SNOs for the next 14.0 days since TLE Epoch: 7/17/2020
Index Date Time (GOES-14) GOES-14 Lat,Lon NOAA-20 Lat,Lon Distance(km) Time Diff (sec)
1 07/19/2020 20:23:37 0.29,-104.50 0.28,-104.41 10.48 80
2 07/22/2020 08:23:58 -0.31,-104.30 -0.11,-105.14 96.11 80
3 07/23/2020 08:07:53 -0.29,-104.30 -1.10,-100.60 420.90 80
4 07/24/2020 20:27:10 0.32,-104.51 0.02,-105.93 161.41 80
5 07/25/2020 20:11:05 0.31,-104.52 1.02,-101.39 356.08 80
6 07/27/2020 08:30:11 -0.34,-104.32 0.21,-106.65 266.45 80
7 07/28/2020 08:14:07 -0.33,-104.32 -0.85,-102.13 250.50 80
8 07/29/2020 20:33:23 0.36,-104.52 -0.29,-107.44 332.85 80
9 07/30/2020 20:17:17 0.35,-104.53 0.71,-102.91 184.44 80
